TimeMST,TemperatureF,Dew PointF,Humidity,Sea Level PressureIn,VisibilityMPH,Wind Direction,Wind SpeedMPH,Gust SpeedMPH,PrecipitationIn,Events,Conditions,WindDirDegrees,DateUTC
12:53 AM,51.1,45.0,80,30.00,10.0,Calm,Calm,-,N/A,,Mostly Cloudy,0,2012-12-05 07:53:00
1:53 AM,50.0,45.0,83,29.99,10.0,Calm,Calm,-,0.00,Rain,Light Rain,0,2012-12-05 08:53:00
2:53 AM,48.0,45.0,89,30.01,7.0,Calm,Calm,-,0.03,Rain,Light Rain,0,2012-12-05 09:53:00
3:53 AM,48.0,46.0,93,30.01,10.0,SSE,3.5,-,0.03,Rain,Light Rain,150,2012-12-05 10:53:00
4:53 AM,48.9,45.0,86,30.00,10.0,South,8.1,-,0.00,,Mostly Cloudy,170,2012-12-05 11:53:00
5:53 AM,48.9,45.0,86,30.00,10.0,SE,4.6,-,N/A,,Partly Cloudy,140,2012-12-05 12:53:00
7:53 AM,48.0,44.1,86,30.03,10.0,ESE,5.8,-,N/A,,Partly Cloudy,110,2012-12-05 14:53:00
8:53 AM,48.0,44.1,86,30.05,10.0,NW,3.5,-,N/A,,Overcast,310,2012-12-05 15:53:00
9:53 AM,52.0,45.0,77,30.07,10.0,Calm,Calm,-,N/A,,Overcast,0,2012-12-05 16:53:00
10:53 AM,55.9,44.1,64,30.07,10.0,SW,15.0,19.6,N/A,,Scattered Clouds,220,2012-12-05 17:53:00
11:53 AM,57.0,42.1,57,30.06,10.0,WSW,18.4,27.6,N/A,,Clear,240,2012-12-05 18:53:00
12:53 PM,59.0,41.0,51,30.06,10.0,WSW,11.5,-,N/A,,Clear,250,2012-12-05 19:53:00
1:53 PM,57.9,39.9,51,30.06,10.0,WSW,9.2,-,N/A,,Partly Cloudy,250,2012-12-05 20:53:00
2:53 PM,59.0,37.9,46,30.05,10.0,West,10.4,-,N/A,,Clear,270,2012-12-05 21:53:00
3:53 PM,55.0,39.0,55,30.06,10.0,North,8.1,-,N/A,,Clear,350,2012-12-05 22:53:00
5:53 PM,45.0,35.1,68,30.11,10.0,NNW,9.2,-,N/A,,Clear,340,2012-12-06 00:53:00
6:53 PM,45.0,34.0,65,30.12,10.0,NNW,11.5,-,N/A,,Clear,330,2012-12-06 01:53:00
7:53 PM,39.9,32.0,73,30.14,10.0,NW,10.4,-,N/A,,Clear,310,2012-12-06 02:53:00
8:53 PM,39.0,30.9,73,30.16,10.0,NW,5.8,-,N/A,,Clear,310,2012-12-06 03:53:00
9:53 PM,39.0,30.0,70,30.16,10.0,Calm,Calm,-,N/A,,Scattered Clouds,0,2012-12-06 04:53:00
10:53 PM,37.0,30.0,76,30.16,10.0,West,5.8,-,N/A,,Scattered Clouds,280,2012-12-06 05:53:00
11:53 PM,39.0,30.0,70,30.16,10.0,SW,5.8,-,N/A,,Overcast,230,2012-12-06 06:53:00